Location: ??????
(38.0131°N, 23.7723°E)
Time: 18:41:26
(UTC+00:00)

Okean-O - Pass Details

Date: 30 May 2022
Orbit: 638 x 640 km, 98.1° (Epoch: 27 June)

Event Time Altitude Azimuth Distance (km) Brightness Sun altitude
Rises 18:36:56 0° 186° (S) 2,928 5.7 -10.1°
Reaches altitude 10° 18:39:16 10° 195° (SSW) 2,023 5.0 -10.5°
Maximum altitude 18:43:19 35° 262° (W) 1,026 4.1 -11.1°
Drops below altitude 10° 18:47:24 10° 329° (NNW) 2,036 6.5 -11.7°
Sets 18:49:46 0° 338° (NNW) 2,949 7.2 -12.1°
